Regional Weather Roundup
Issued by NWS

Home | Current Version | Previous Version | Text Only | Print | Product List | Glossary Off
Versions: 1 2 3 4 5 6 7 8 9 10 11 12 13 14 15 16 17 18 19 20 21 22 23 24 25 26 27 28 29 30 31 32 33 34 35 36 37 38 39 40 41 42 43 44 45 46 47 48 49 50

000
ASUS43 KLMK 271710
RWRKY
KENTUCKY REGIONAL WEATHER ROUNDUP
NATIONAL WEATHER SERVICE LOUISVILLE KY
100 PM EDT FRI MAY 27 2016

NOTE "FAIR" INDICATES FEW OR NO CLOUDS BELOW 12,000 FEET
WITH NO SIGNIFICANT WEATHER AND/OR OBSTRUCTIONS TO VISIBILITY.

KYZ001>023-026-027-061>063-070>075-271800-
WESTERN AND SOUTH CENTRAL KENTUCKY

CITY           SKY/WX    TMP DP  RH WIND       PRES   REMARKS
PADUCAH        CLOUDY    81  69  67 S13G18    29.94F
HENDERSON      CLOUDY    81  66  61 S16       29.96F
OWENSBORO      MOSUNNY   83  66  56 S16G24    29.99F
HOPKINSVILLE   PTSUNNY   81  66  61 S14       30.00F
BOWLING GREEN  CLOUDY    83  65  54 SW12      30.04F
GLASGOW        PTSUNNY   82  66  58 S9        30.06S
$$

KYZ024-025-028>034-038-045-046-053-271800-
NORTH CENTRAL KENTUCKY

CITY           SKY/WX    TMP DP  RH WIND       PRES   REMARKS
LOUISVILLE/SDF PTSUNNY   84  64  50 S15       30.02F
LOUISVILLE/LOU MOSUNNY   82  66  58 S10       30.03F
FORT KNOX      PTSUNNY   84  66  54 S16       30.02F
$$

KYZ035>037-039>044-047>052-055>060-089>105-271800-
NORTHEAST KENTUCKY

CITY           SKY/WX    TMP DP  RH WIND       PRES   REMARKS
LEXINGTON      SUNNY     83  65  54 SW14      30.07F
COVINGTON      MOSUNNY   82  67  60 VRB7      30.04F
FRANKFORT      SUNNY     83  65  54 S14       30.05S
$$

KYZ054-064>069-076>088-106>120-271800-
SOUTHEAST KENTUCKY

CITY           SKY/WX    TMP DP  RH WIND       PRES   REMARKS
JACKSON        MOSUNNY   82  65  56 VRB3      30.11S
LONDON         MOSUNNY   82  63  52 SW8       30.11S
SOMERSET       MOSUNNY   79  63  57 CALM      30.10F
MIDDLESBORO    MOSUNNY   82  66  57 S6        30.12S
MONTICELLO     SUNNY     84  67  56 W14G20    30.10F
$$





USA.gov is the U.S. government's official web portal to all federal, state and local government web resources and services.